GFSSE_sfc_temp_021.txt.gz
Temp
75 74 78 78 78 78 78 78 78 78 78 77 77 77 77 76 76 76 76 76 76 76 76 77 77 77 78 78 78 78 78 78 78 79 80 79 80 79 79 80 79 79 79
79 74 78 78 78 79 78 78 78 78 77 77 77 77 77 76 76 76 76 76 76 76 77 77 77 77 78 78 78 78 78 78 77 78 79 79 79 79 79 79 79 78 79
77 74 77 78 78 78 78 78 77 77 77 77 77 77 77 77 77 77 76 76 76 76 77 77 77 77 78 77 78 78 78 78 77 77 79 74 75 79 79 79 79 79 78
74 73 75 78 78 78 78 77 77 77 77 77 77 77 77 77 77 77 77 77 76 77 77 77 77 77 77 78 77 77 78 78 77 77 73 73 74 79 79 80 79 79 78
74 74 74 78 77 78 78 77 77 77 77 77 77 77 77 77 77 77 77 77 77 77 77 78 78 77 77 78 77 76 77 77 77 76 71 71 71 77 78 78 79 79 78
74 75 75 77 77 78 78 77 77 77 77 77 77 77 77 77 77 76 76 77 77 77 78 78 78 77 77 77 77 76 76 77 77 70 69 71 71 76 78 78 78 78 77
70 71 74 77 77 77 78 77 77 77 77 77 77 77 77 77 76 76 76 76 76 77 77 77 77 77 76 77 77 75 75 76 72 68 68 69 70 75 78 78 78 77 77
72 70 71 77 77 77 77 77 77 76 76 76 76 76 76 76 75 75 75 76 76 76 76 77 77 76 76 75 75 75 75 76 74 68 68 68 71 75 78 77 77 77 77
72 71 70 73 75 77 77 77 76 75 75 75 75 75 75 75 75 74 74 74 75 75 75 75 75 75 75 74 75 74 74 75 69 66 68 68 73 75 79 77 77 77 77
68 70 67 67 69 69 70 76 76 75 75 75 75 75 74 74 74 73 73 72 73 75 75 75 75 75 74 74 74 74 74 75 68 66 66 68 74 76 78 77 77 77 77
68 64 63 64 66 66 67 70 75 76 76 75 74 74 72 65 64 67 68 71 72 73 74 74 74 74 74 74 74 74 75 66 66 66 66 72 74 76 77 77 75 74 76
64 64 63 64 63 64 70 65 65 66 65 65 65 64 63 62 61 64 66 71 72 73 73 73 73 74 73 66 68 73 66 65 65 65 69 72 74 77 77 74 74 74 74
66 64 63 63 63 64 64 61 61 61 60 61 63 62 61 61 59 60 59 60 60 65 62 65 65 65 65 63 64 63 64 65 64 66 69 73 74 77 76 75 75 75 75
64 64 63 63 63 62 62 60 60 59 59 60 61 61 59 58 58 58 58 59 59 59 60 60 61 62 63 63 63 63 63 64 63 65 69 73 75 76 76 76 76 75 75
64 65 63 62 62 62 61 60 59 59 60 61 60 60 59 59 58 59 59 59 58 58 58 59 60 61 62 61 62 62 63 64 64 66 67 72 74 74 75 75 76 76 76
65 64 63 62 62 61 60 60 59 59 60 60 60 60 61 59 59 59 60 58 58 58 58 59 59 59 60 60 61 62 62 63 64 64 66 67 73 73 75 75 77 76 76
66 64 63 62 62 61 60 60 59 60 61 60 60 61 61 60 59 59 58 58 58 58 58 58 59 59 58 60 60 61 62 63 63 65 65 66 68 73 73 75 73 75 75
63 63 62 67 62 60 60 60 60 61 60 60 61 61 62 62 61 59 58 57 59 58 57 57 57 57 58 58 58 59 60 62 64 64 65 66 66 67 72 74 74 73 74
64 62 62 62 61 61 60 59 60 61 60 61 60 60 61 62 62 59 58 58 59 58 57 57 57 57 57 59 59 59 59 61 63 66 66 65 65 66 67 72 73 73 73
62 62 61 61 61 60 59 60 59 59 60 61 60 60 62 62 62 59 59 59 59 57 56 57 57 58 59 60 60 59 59 59 63 64 64 65 65 66 66 67 68 69 72
61 60 60 60 59 59 59 59 58 59 59 59 60 61 63 62 61 59 59 59 58 57 56 57 57 58 59 58 58 56 59 59 61 64 65 64 65 66 66 66 67 67 68
61 60 60 61 59 60 59 59 59 59 59 59 59 61 62 63 62 60 59 59 58 56 56 57 57 56 58 59 56 55 53 56 59 62 65 65 65 65 65 66 66 66 67
59 60 60 60 60 61 61 59 59 58 59 59 58 59 60 62 63 61 60 59 57 57 56 56 57 57 57 56 57 56 53 51 58 61 63 64 64 64 65 65 65 66 66
60 60 60 60 61 61 61 59 58 56 56 57 57 58 59 62 63 62 61 59 58 57 57 57 58 58 57 56 57 60 58 60 54 56 61 62 63 63 63 64 64 64 66
60 59 60 60 61 61 61 59 57 56 56 57 57 58 58 60 61 62 60 59 58 57 57 58 57 58 57 57 57 57 59 59 60 59 56 58 62 63 63 63 63 63 65
59 59 59 60 60 60 60 59 58 57 57 55 56 56 57 58 59 60 61 59 59 58 57 58 58 58 58 58 58 59 58 58 56 57 57 57 58 61 62 63 63 63 64

GFSSE_sfc_temp_024.txt.gz
Temp
72 71 78 78 78 78 78 78 78 78 77 77 77 77 76 76 76 76 76 76 76 76 76 77 77 77 77 77 77 77 77 78 78 78 79 79 79 79 79 80 80 80 79
76 72 78 78 78 78 78 78 78 77 77 77 77 77 77 76 76 76 76 76 76 76 77 77 77 77 77 78 78 77 77 78 78 77 78 79 80 80 80 80 80 79 79
75 72 77 78 78 78 78 78 77 77 77 77 77 77 77 77 76 76 76 76 76 76 77 77 77 77 77 78 78 78 78 77 77 77 78 77 78 80 80 80 79 79 79
74 72 75 78 78 78 78 77 77 77 77 77 77 77 77 77 77 77 77 77 77 77 77 77 77 77 77 77 78 77 77 78 77 77 74 76 74 80 80 80 79 79 78
73 73 74 78 77 78 78 77 77 77 77 77 77 77 77 77 77 77 77 77 77 78 78 78 78 78 77 77 77 77 76 77 77 77 74 73 74 78 80 79 79 79 78
73 74 75 77 77 78 78 77 77 77 77 77 77 77 77 77 76 76 76 77 77 77 78 78 78 78 77 77 77 77 76 76 77 73 72 73 74 76 79 79 79 78 78
70 71 73 77 77 77 78 77 77 77 77 77 77 77 77 77 76 76 76 76 77 77 77 77 78 77 77 77 77 77 76 76 75 71 71 72 73 74 78 79 78 77 76
70 68 70 77 77 77 77 77 77 76 76 76 76 77 77 77 76 76 76 76 76 76 77 77 77 76 76 75 75 75 76 76 75 71 71 71 72 74 77 77 78 77 75
69 68 68 72 75 77 77 77 76 76 76 75 75 75 76 76 76 75 75 75 75 75 75 75 75 75 75 75 75 75 75 75 72 70 70 70 72 75 77 77 77 76 75
66 67 67 69 72 71 72 77 76 76 75 75 75 75 75 75 75 74 74 73 73 74 74 76 75 75 75 74 74 74 74 75 72 70 70 70 73 75 77 77 77 77 77
66 65 65 66 67 68 68 71 75 77 76 75 75 75 73 67 66 69 70 72 72 73 73 74 74 74 74 74 74 74 74 70 69 69 69 71 74 75 78 78 77 76 77
64 62 63 64 65 65 69 66 66 67 66 66 66 65 66 65 64 66 68 71 72 72 73 73 73 73 74 69 71 73 71 70 68 68 70 72 74 75 77 77 77 73 71
69 64 63 63 63 63 64 62 62 62 62 63 63 63 63 63 62 63 62 63 63 66 64 65 65 67 68 67 67 67 68 68 67 68 70 72 74 76 77 77 77 75 74
63 65 62 62 61 61 61 61 61 61 61 61 61 62 61 60 60 60 60 60 61 61 61 62 62 64 65 66 66 66 67 67 67 67 69 72 73 75 77 77 76 76 74
63 62 62 61 60 61 61 60 60 60 61 61 61 61 60 59 59 60 60 60 60 60 60 61 62 63 63 64 65 65 66 66 66 67 68 70 72 74 76 76 76 76 73
65 61 60 61 61 61 60 60 59 59 60 61 60 61 62 60 59 59 60 60 60 60 60 60 61 62 62 63 64 64 65 65 66 66 68 67 70 73 75 75 75 75 75
61 61 62 61 61 61 61 60 59 59 60 60 60 62 62 61 60 60 59 59 59 60 60 60 61 61 61 62 63 63 64 65 65 66 67 67 69 72 74 75 75 76 76
61 62 61 66 61 61 60 60 59 60 60 60 61 61 62 62 61 60 59 59 60 60 60 59 59 60 60 61 61 62 63 64 65 66 67 68 68 70 73 74 75 75 74
62 61 61 61 61 60 60 59 59 61 60 60 61 61 62 63 63 60 59 60 60 59 59 59 59 60 59 60 61 62 62 63 65 66 66 67 68 69 70 73 73 72 74
62 62 60 60 60 60 59 59 59 60 60 61 61 61 63 63 63 60 60 60 60 59 58 58 59 60 61 61 62 61 61 62 63 65 65 66 68 68 68 69 71 70 72
62 61 60 59 59 58 58 59 59 60 60 60 61 62 63 63 63 60 59 60 60 59 58 59 59 60 60 60 58 59 60 61 62 64 67 66 66 67 67 68 68 70 70
62 60 59 60 58 59 59 59 60 59 60 60 60 61 63 63 62 61 59 60 60 58 58 58 59 58 59 60 58 58 57 59 62 63 65 65 65 67 66 68 68 68 69
59 59 59 59 59 60 61 59 59 59 59 59 59 60 61 63 63 63 61 60 59 58 57 58 59 60 58 59 60 59 55 55 60 63 64 64 64 64 65 66 66 67 67
59 59 59 59 60 61 60 60 59 57 56 57 58 59 59 62 63 63 61 61 59 58 58 58 59 60 60 58 60 61 61 62 57 57 62 62 64 63 64 65 65 66 66
59 59 59 60 60 60 60 59 58 57 57 58 58 59 59 61 63 63 61 60 59 58 59 59 59 60 60 59 60 60 61 61 62 59 57 59 62 63 63 64 64 65 65
58 58 59 59 59 60 60 60 59 58 58 57 58 58 58 60 61 62 61 60 60 59 59 60 60 60 60 61 61 59 60 61 59 60 58 58 58 60 63 63 63 64 64

GFSSE_sfc_temp_030.txt.gz
Temp
95 95 79 79 78 78 78 78 78 78 78 78 78 78 78 77 77 77 77 77 77 77 77 77 77 78 78 78 78 78 78 78 78 79 79 80 81 81 80 81 81 88 79
99 94 78 79 78 79 79 78 78 78 78 78 78 78 78 77 77 77 77 77 77 77 77 78 78 78 78 78 79 78 78 78 78 78 79 79 81 81 81 81 81 84 79
98 94 85 78 78 79 78 78 78 78 77 78 78 78 77 77 77 77 77 77 77 77 77 78 78 78 78 78 78 79 78 78 78 78 78 87 87 81 81 81 81 80 79
98 92 90 78 78 79 78 78 78 77 77 78 78 78 77 77 77 77 77 77 77 77 78 78 78 78 78 78 78 78 78 78 78 78 86 92 90 81 81 81 81 80 79
97 94 90 78 78 79 78 78 77 77 77 78 78 78 78 78 78 77 77 77 77 78 79 79 79 79 78 78 78 77 78 77 78 81 88 90 90 87 80 80 80 79 79
99 97 89 78 78 78 78 78 77 77 77 78 78 78 78 78 77 77 77 77 77 78 78 79 79 79 78 78 78 77 77 77 77 87 88 88 85 83 80 80 80 80 78
100 99 96 78 78 78 78 78 77 77 77 77 78 78 78 77 77 77 77 77 77 78 77 78 78 78 77 78 78 77 76 77 83 88 88 86 88 78 78 79 79 78 78
99 96 96 80 77 77 78 78 77 77 77 77 77 77 77 77 77 77 77 77 77 77 77 77 77 77 76 76 77 76 76 76 84 85 87 87 82 76 77 77 78 77 77
99 96 94 91 82 77 77 77 77 77 76 76 76 76 76 77 77 77 77 77 76 76 76 76 76 76 75 75 75 75 76 76 83 87 88 88 79 76 76 77 77 78 77
99 98 94 91 91 87 86 77 77 77 76 76 76 76 76 76 77 76 75 75 75 75 75 75 75 75 75 75 75 75 75 75 82 81 86 88 77 76 77 77 77 77 77
98 97 96 95 93 90 90 87 78 77 77 76 77 76 77 84 85 84 80 77 75 74 74 74 74 74 74 74 74 75 75 83 85 80 81 80 76 76 77 77 77 77 77
96 96 97 92 91 91 93 89 85 87 87 86 85 84 84 84 84 83 80 75 74 74 74 73 74 74 75 82 84 76 82 84 86 82 80 77 75 76 77 77 77 77 77
100 98 96 89 89 89 91 90 89 89 88 87 84 83 83 84 84 84 84 82 80 78 81 81 81 82 82 81 79 78 84 85 87 84 81 75 74 75 77 77 77 77 76
98 97 95 91 85 85 91 89 89 89 87 86 86 81 80 82 81 80 82 81 78 82 80 80 81 80 79 80 81 77 80 85 86 85 82 75 74 74 75 76 77 76 76
95 97 94 90 84 84 84 88 87 86 86 86 85 83 82 82 80 81 80 80 77 80 79 79 80 79 79 80 81 79 80 81 84 83 80 75 74 73 74 76 77 76 76
94 94 93 87 83 84 83 83 83 83 86 84 85 84 80 81 80 81 78 77 78 78 81 75 79 79 80 80 80 79 80 82 81 80 84 83 73 72 72 75 76 76 76
94 92 89 84 83 81 81 81 83 85 84 85 84 81 80 79 79 77 77 77 75 77 76 75 76 77 78 79 77 78 79 78 77 79 81 83 83 72 73 74 76 76 75
92 88 85 86 84 81 81 82 84 85 84 84 84 83 79 78 77 76 74 72 71 74 74 74 75 76 76 75 74 74 76 77 76 79 81 83 84 85 77 75 75 75 75
90 86 81 83 83 80 80 83 83 81 82 84 83 83 81 79 78 75 73 69 73 73 72 73 76 76 71 70 69 70 75 77 79 81 81 81 80 83 83 76 74 73 74
84 81 81 82 81 80 81 81 83 83 83 83 83 82 80 79 78 74 72 72 70 71 71 72 73 72 71 67 69 71 74 80 81 81 77 81 78 80 81 80 80 80 73
81 79 79 79 77 80 81 81 81 81 82 82 82 80 79 79 76 72 70 71 71 70 72 74 69 68 67 68 67 67 70 75 75 74 77 77 77 81 80 79 77 77 70
78 78 78 77 77 79 82 82 83 83 84 84 84 79 79 78 74 72 70 70 73 71 73 72 69 67 66 68 68 69 68 67 74 74 77 74 74 79 81 80 79 74 71
77 77 77 77 77 80 80 80 79 79 80 80 80 80 78 77 76 74 72 72 71 75 72 69 69 68 65 68 73 71 67 70 73 70 72 75 75 76 76 80 78 73 69
78 79 79 78 77 78 78 79 77 80 79 82 80 82 78 77 76 74 72 71 73 73 68 70 72 70 69 68 74 76 75 79 73 65 68 72 76 75 72 77 74 73 72
79 79 79 78 78 77 78 79 78 77 80 81 81 74 75 73 72 75 75 75 73 69 70 72 72 70 71 68 70 71 72 74 78 72 69 66 70 75 69 73 68 68 70
81 80 78 77 76 77 78 77 76 75 75 78 77 73 73 72 70 75 76 74 73 72 73 74 74 73 71 71 71 71 70 69 69 70 68 69 65 64 66 67 68 65 65

GFSSE_sfc_temp_033.txt.gz
Temp
102 91 79 79 79 78 79 79 78 78 78 78 78 78 78 78 78 78 78 78 78 78 78 78 78 78 78 79 79 79 79 79 79 79 80 81 81 81 80 80 81 87 79
104 90 79 79 79 79 79 79 78 78 78 78 78 78 78 78 78 78 78 78 78 78 78 78 78 78 78 79 79 79 79 79 79 79 79 80 80 80 80 81 80 82 79
103 92 84 78 79 79 78 78 78 78 78 78 78 78 78 78 78 78 78 78 78 78 78 78 78 78 78 78 79 79 79 79 79 79 79 84 86 80 81 79 80 80 79
103 93 89 78 78 79 78 78 78 78 78 78 78 78 78 78 78 78 78 77 78 78 78 78 79 79 78 78 78 78 79 78 78 79 84 89 90 81 81 80 80 79 79
102 97 91 78 78 78 78 78 78 78 78 78 78 78 78 78 78 78 78 78 78 78 79 79 79 79 79 78 78 78 78 78 78 80 86 88 90 87 81 79 80 80 78
104 101 88 78 78 78 78 78 78 78 78 78 78 78 78 78 78 78 78 78 78 78 79 79 79 79 79 78 79 78 77 78 78 85 86 88 89 84 80 80 79 80 78
105 103 96 78 78 78 78 78 78 78 77 77 78 78 78 78 78 77 77 77 77 78 78 78 77 78 78 76 77 78 77 77 82 86 88 88 88 82 80 78 78 78 78
104 102 99 80 78 78 78 78 78 77 77 77 77 78 78 78 77 77 77 77 77 78 77 77 77 76 76 76 77 77 77 77 82 83 85 89 83 78 77 78 76 77 78
105 102 100 90 83 78 78 78 77 77 77 77 77 77 77 77 77 77 77 77 77 77 76 76 76 76 76 76 76 76 76 76 80 82 88 88 79 79 78 77 77 77 77
105 105 100 96 92 87 86 78 77 77 76 76 76 76 76 77 77 77 76 76 77 76 76 75 75 75 75 75 75 75 75 76 80 83 86 85 78 78 78 77 77 76 77
105 104 102 101 96 91 90 87 78 77 77 77 77 76 77 83 85 84 80 79 76 75 75 75 74 74 74 74 75 75 75 80 82 83 84 80 78 78 78 78 77 77 76
104 104 103 98 96 94 95 91 85 86 85 85 85 85 84 84 86 86 81 77 76 75 75 74 74 74 75 81 82 76 80 82 84 85 86 79 78 77 77 78 77 77 76
105 106 104 96 94 94 94 94 90 89 88 87 86 85 86 86 86 87 86 81 78 77 78 78 76 77 80 82 83 74 80 83 85 87 85 79 77 76 77 77 78 77 76
104 104 103 99 91 90 95 94 92 91 90 89 88 85 82 83 82 82 84 85 79 80 78 78 77 79 78 81 81 77 81 83 81 87 84 77 76 76 76 76 77 77 76
101 103 102 98 90 87 87 93 91 90 91 90 88 87 84 84 83 84 83 81 79 82 82 79 76 76 77 75 81 81 77 80 83 78 75 76 76 75 75 76 77 77 76
99 100 99 98 89 87 86 87 88 88 90 88 88 87 84 83 82 83 81 77 77 79 80 75 71 71 75 80 76 80 77 76 78 79 83 78 75 74 74 75 76 77 77
98 98 96 96 90 85 85 86 87 88 88 88 87 85 85 81 81 79 81 80 80 76 75 75 76 75 77 80 78 74 77 76 74 76 79 76 79 73 74 74 75 77 77
97 96 95 97 90 85 84 86 86 88 86 88 87 87 83 81 80 79 77 79 79 75 74 71 70 74 73 72 73 75 77 77 79 78 79 83 84 80 75 75 75 76 76
96 94 92 91 88 85 84 85 84 85 86 87 87 86 84 82 81 78 77 76 74 71 71 69 68 72 67 73 73 73 75 73 77 79 80 80 81 80 85 75 74 74 75
94 92 89 86 85 84 85 83 86 85 85 87 86 86 84 83 79 80 78 74 72 70 70 68 69 73 75 72 71 71 73 74 73 79 79 82 83 81 83 82 79 78 74
88 85 83 82 83 83 82 83 83 83 83 85 86 85 83 81 80 76 76 72 72 70 71 70 71 71 69 70 67 67 69 74 73 73 80 80 80 81 82 79 79 78 78
83 82 81 81 80 81 83 84 86 85 87 86 87 85 83 81 77 76 73 71 72 70 70 69 71 68 67 69 66 66 62 69 75 76 74 75 77 82 81 79 79 79 76
82 81 80 80 78 81 84 84 83 83 83 82 83 82 81 78 77 75 75 72 71 72 72 70 71 68 66 69 70 67 64 65 71 73 72 76 76 78 78 78 79 76 73
82 82 81 79 79 82 81 81 79 81 81 83 83 84 82 79 77 77 73 74 73 74 72 73 71 70 68 66 68 74 74 70 71 66 69 71 74 75 76 76 75 75 73
83 81 80 79 79 79 80 81 80 79 83 83 83 79 78 76 76 76 75 75 73 72 73 70 71 69 71 68 71 70 76 78 77 70 67 68 70 72 74 73 73 72 73
84 82 80 79 78 79 80 80 78 78 79 79 79 78 75 72 72 75 76 74 74 73 71 73 72 72 71 70 69 69 72 73 74 72 68 68 66 66 70 70 69 67 67

GFSSE_sfc_temp_036.txt.gz
Temp
89 82 79 79 78 78 78 78 78 78 78 78 78 78 78 78 78 78 78 78 78 78 78 78 78 78 78 79 79 79 78 79 78 79 79 80 81 81 80 80 80 83 79
90 82 78 78 78 78 78 78 78 78 78 78 78 78 78 78 78 78 78 78 78 78 78 78 78 78 78 78 78 79 79 78 78 79 79 79 80 80 80 80 80 82 79
88 82 80 78 78 78 78 78 78 77 77 77 78 78 78 78 78 78 78 77 78 78 78 78 78 78 78 78 78 78 78 78 78 78 79 77 80 81 80 80 81 80 79
88 82 82 78 78 78 78 78 77 77 77 77 77 78 78 78 78 78 77 77 77 78 78 78 78 79 78 78 78 78 78 78 78 78 76 80 82 82 81 80 80 80 79
90 86 82 78 78 78 78 78 77 77 77 77 78 78 78 77 77 77 77 77 77 78 78 79 79 79 79 79 78 78 77 78 78 78 76 75 75 86 80 80 80 79 79
97 91 83 78 78 78 78 78 77 77 77 77 78 77 77 77 77 77 77 77 78 78 78 78 78 78 78 78 78 77 77 77 78 77 77 78 78 82 81 80 80 79 78
100 96 83 78 78 78 78 78 77 77 77 77 77 78 78 77 77 77 77 77 77 77 78 78 78 77 77 77 77 76 77 77 77 77 78 77 79 80 80 80 78 78 78
100 94 84 78 77 78 78 78 77 77 77 77 77 77 77 77 77 77 77 77 77 77 77 77 77 77 76 75 76 76 76 77 78 76 77 77 79 79 79 78 78 78 78
102 96 84 81 79 78 77 77 77 77 76 77 77 77 77 77 77 77 77 77 76 77 77 76 76 76 75 75 75 75 76 76 75 75 79 77 78 79 79 78 77 77 77
102 101 86 83 82 80 79 77 77 77 76 76 76 76 76 77 77 76 76 76 77 77 76 76 75 75 75 74 74 75 75 76 75 75 76 77 78 79 79 78 77 77 77
104 99 95 88 85 82 82 80 77 77 77 76 76 76 75 76 78 78 77 77 76 76 76 75 75 74 74 74 74 74 75 73 74 75 76 79 78 78 78 78 77 77 77
100 102 99 93 87 85 89 82 78 78 78 77 77 77 75 77 77 81 79 78 77 76 75 75 75 74 74 73 75 75 73 74 75 75 78 78 78 78 78 78 77 77 77
100 100 99 87 85 86 87 85 80 80 79 78 77 77 77 79 78 78 77 76 73 75 74 75 73 73 73 73 74 74 73 76 75 77 80 78 78 78 78 77 77 77 76
98 95 94 88 84 84 87 87 82 82 81 80 79 78 77 78 76 75 76 77 73 75 73 73 72 71 72 74 75 74 73 72 73 76 76 77 77 77 78 77 77 77 76
93 93 93 87 83 82 81 85 84 82 83 82 81 80 78 76 74 76 76 77 75 75 73 72 73 72 71 72 74 74 74 74 74 73 72 77 76 76 77 77 77 77 76
92 91 92 86 82 83 82 80 80 80 82 82 80 79 77 76 74 76 75 75 74 74 73 71 71 70 70 71 71 72 73 73 74 73 73 73 75 74 75 77 77 77 77
92 92 92 88 82 80 80 80 82 82 82 79 79 79 78 76 75 75 75 74 73 73 72 71 69 68 68 69 70 70 71 73 71 72 72 72 72 75 74 75 76 77 77
90 91 90 93 83 80 80 81 81 82 79 79 78 79 78 77 77 75 74 73 74 72 70 68 67 67 67 67 68 67 67 69 71 71 73 73 72 75 73 74 75 76 77
89 87 87 87 82 80 80 81 81 81 78 77 79 78 78 77 77 74 73 73 73 70 68 68 66 67 65 66 66 67 67 68 69 72 72 72 72 72 72 72 74 74 75
89 89 89 84 80 80 80 79 79 79 78 79 78 78 79 77 78 75 73 72 71 68 67 66 66 66 66 64 67 66 66 67 67 69 69 73 72 72 72 70 69 72 74
86 83 81 80 80 79 78 77 77 77 76 77 78 80 80 79 78 75 73 71 69 68 66 67 66 66 64 66 63 63 64 66 66 67 67 70 72 75 73 70 69 69 72
81 80 79 79 78 78 78 76 78 77 78 78 78 78 78 78 76 75 72 70 69 67 66 66 66 63 64 65 62 61 58 61 64 66 68 69 68 70 71 73 70 70 71
79 78 78 78 77 77 78 77 78 78 78 77 77 76 76 77 76 74 73 70 68 67 65 66 66 65 62 64 64 61 57 56 60 64 65 66 66 67 68 70 71 71 70
79 79 78 77 76 77 78 77 75 74 73 75 76 73 73 76 75 73 71 71 69 67 67 66 67 65 65 61 63 66 65 64 58 57 63 64 66 66 68 68 69 69 67
80 78 77 76 76 77 77 76 75 75 76 77 76 75 75 74 73 74 73 70 70 68 68 68 68 65 65 63 64 63 63 63 61 59 57 60 63 65 68 67 67 67 68
80 78 76 75 75 76 77 77 76 74 74 74 74 71 72 72 70 71 73 70 70 68 68 68 68 67 65 65 64 64 63 61 61 58 59 60 60 63 65 66 66 66 67

GFSSE_sfc_temp_042.txt.gz
Temp
74 75 78 79 78 78 78 78 78 78 77 77 78 78 77 77 77 77 77 77 77 78 78 78 78 77 77 77 78 78 77 78 78 78 78 78 79 80 80 80 79 80 79
76 75 78 78 78 78 78 78 78 77 77 77 78 78 77 77 77 77 77 77 77 78 78 78 77 77 77 77 77 77 77 77 77 78 78 78 78 77 80 80 81 78 79
76 74 77 78 78 78 78 77 77 77 77 77 77 77 77 77 77 77 77 77 77 78 78 78 78 77 77 77 77 77 77 77 77 77 78 71 73 78 79 81 79 79 78
76 73 74 78 78 78 78 77 77 77 77 77 77 77 77 77 77 77 77 77 77 77 78 78 78 78 78 78 78 77 77 77 77 77 71 71 72 79 81 80 79 79 79
75 74 74 78 78 78 78 77 77 77 77 77 77 77 77 77 77 77 77 77 77 77 78 78 78 78 78 78 78 77 77 77 77 76 70 68 67 76 79 81 80 79 78
75 75 76 77 77 78 78 77 77 77 77 77 77 77 77 77 77 76 77 77 77 77 78 78 78 78 78 78 77 77 76 76 77 71 70 71 71 76 79 80 80 79 77
74 75 76 77 77 78 78 77 77 77 77 77 77 77 77 77 76 76 76 77 77 77 77 77 77 77 77 77 77 76 76 76 74 70 70 70 70 75 79 79 79 78 78
77 76 76 77 77 77 77 77 77 76 76 76 77 77 77 76 76 76 76 77 77 77 77 77 77 77 76 75 76 75 76 76 76 70 69 69 73 76 79 79 78 78 78
79 77 76 76 77 77 77 77 76 76 76 76 76 76 76 76 76 76 76 76 76 76 76 76 76 76 75 75 75 75 75 76 71 68 71 69 74 77 79 78 78 78 78
78 78 76 75 75 75 75 77 76 76 76 76 76 76 76 76 76 76 75 76 76 76 76 76 76 75 75 74 74 74 75 75 70 68 67 67 75 77 80 79 78 77 77
79 76 74 74 75 74 74 76 76 77 76 76 76 76 74 71 71 73 74 75 76 76 76 76 75 75 74 74 74 74 75 67 67 67 67 72 75 78 79 78 78 77 77
78 75 73 73 73 74 76 74 74 74 74 73 73 72 71 68 68 72 73 76 76 76 76 76 75 75 74 67 66 72 67 66 66 67 67 73 75 79 79 78 77 76 76
81 80 75 74 73 73 75 73 73 72 72 71 71 70 69 69 68 69 66 69 69 74 71 73 71 69 67 65 65 64 65 67 66 68 71 74 75 77 79 78 77 77 75
81 75 76 75 73 72 74 73 73 71 71 70 70 69 68 67 66 65 67 66 66 67 67 66 65 65 65 66 65 65 66 67 67 67 66 74 75 77 79 77 77 77 76
79 80 76 75 74 73 73 73 72 71 71 70 69 68 68 67 65 67 67 64 65 64 65 64 64 65 64 65 66 67 67 66 70 66 65 73 75 76 77 78 76 77 76
77 79 73 74 75 74 74 73 72 72 71 70 70 69 69 70 68 67 66 64 63 64 64 64 65 63 63 64 65 67 66 67 67 66 65 65 74 75 76 77 76 77 76
78 78 75 71 73 74 75 74 73 72 72 70 70 70 70 70 69 68 66 65 64 64 65 66 64 63 64 65 64 66 66 68 70 66 66 66 69 75 76 76 76 77 77
75 77 76 78 71 72 74 73 74 73 72 72 71 70 71 71 69 67 65 64 64 63 63 63 62 62 62 61 61 61 62 64 66 65 66 67 70 71 73 75 76 76 76
75 76 73 71 69 70 68 71 70 69 70 67 68 68 70 70 69 66 65 65 64 63 63 62 61 61 60 60 60 60 61 61 63 67 66 66 67 67 67 72 74 74 75
74 72 71 69 67 68 69 67 67 66 66 67 67 67 68 70 68 65 65 64 63 62 62 61 61 61 60 60 62 61 60 61 61 61 63 66 64 65 65 65 67 70 73
70 69 68 67 67 70 70 67 65 64 65 65 66 68 67 67 66 66 64 64 63 62 61 61 61 60 60 61 59 58 59 61 60 60 61 61 64 66 65 65 64 65 69
70 68 67 67 67 67 66 65 66 65 65 67 67 67 69 68 67 65 64 63 63 62 62 61 60 60 60 60 56 56 54 55 58 60 60 61 61 63 65 66 65 65 66
67 66 66 66 67 67 67 67 65 65 65 64 64 64 65 67 67 66 64 62 62 63 61 60 61 59 57 57 58 56 51 50 53 57 59 60 61 60 62 64 65 65 65
65 66 66 67 67 67 67 66 65 62 61 62 63 63 65 68 67 66 64 64 63 62 61 60 60 59 58 56 57 60 57 56 52 53 57 59 59 61 61 61 63 64 65
65 64 66 66 66 66 66 66 63 62 62 61 62 63 63 63 65 67 65 63 62 61 61 60 60 59 58 57 57 56 56 56 56 53 51 55 58 59 60 61 62 63 64
65 65 66 65 64 65 65 65 64 63 61 60 60 60 61 62 62 64 65 62 62 61 60 60 61 60 58 58 58 57 56 55 55 54 53 52 54 57 61 62 63 64 64

GFSSE_sfc_temp_045.txt.gz
Temp
73 73 78 78 78 78 78 78 78 78 78 78 78 78 77 77 77 78 77 77 78 78 78 78 77 77 77 77 77 77 77 77 77 78 78 77 78 78 79 78 80 79 78
75 74 78 78 78 79 79 78 78 77 77 77 78 77 77 77 77 77 77 77 78 78 78 77 77 77 77 77 77 77 77 77 77 77 78 78 77 76 78 80 79 78 78
73 74 76 78 78 78 78 78 77 77 77 77 77 77 77 77 77 77 77 77 77 78 78 77 77 77 77 77 77 77 77 77 76 77 77 69 70 77 80 79 80 79 78
74 73 75 78 78 78 78 77 77 77 77 77 77 77 77 77 77 77 77 77 77 78 77 77 77 77 77 77 77 77 77 76 76 77 69 69 70 77 79 80 80 79 78
74 73 73 77 77 78 78 77 77 77 77 77 77 77 77 77 77 77 77 77 77 78 78 78 77 77 77 77 77 77 76 76 76 75 69 66 65 75 78 79 80 80 79
74 74 75 77 77 78 78 77 77 77 77 77 77 77 77 77 77 76 77 77 77 77 78 77 77 77 77 77 77 77 77 76 76 69 68 69 69 74 77 79 79 79 78
73 73 75 77 77 78 78 77 77 77 77 77 77 77 77 77 76 76 76 77 77 77 77 77 77 77 77 77 77 77 76 76 73 68 68 68 68 74 77 78 79 79 78
75 73 74 77 77 77 77 77 77 76 76 76 77 77 77 76 76 76 76 76 77 77 77 77 77 76 76 75 75 75 75 76 75 69 68 67 71 75 78 78 78 78 78
77 74 73 75 76 78 77 77 76 76 76 76 76 76 76 76 76 76 76 76 76 76 76 76 76 76 75 75 75 75 75 76 70 67 70 67 72 75 78 78 78 78 78
73 74 73 73 74 74 75 77 76 76 76 76 76 76 76 76 76 76 75 75 76 76 76 76 76 75 75 74 74 74 75 75 69 67 66 66 73 76 78 78 77 77 77
75 71 70 71 73 73 73 75 76 77 76 76 76 76 74 71 71 72 74 75 76 76 76 76 75 75 74 74 74 74 75 66 66 65 65 71 74 76 77 78 78 77 77
75 72 70 71 72 73 75 72 73 73 73 73 72 71 71 68 68 71 73 76 76 76 76 75 75 75 74 66 66 71 66 65 65 65 65 72 74 76 77 78 77 78 77
82 79 74 73 73 72 74 73 72 71 71 70 70 69 69 68 68 69 67 69 68 73 69 72 71 69 67 65 64 63 64 64 64 66 69 73 74 75 77 77 77 77 77
76 79 76 74 73 72 73 72 72 71 71 69 69 68 68 67 66 65 66 65 65 67 68 67 66 66 65 65 64 64 64 64 64 65 65 72 74 75 77 78 77 77 77
74 74 75 74 72 72 71 72 71 70 71 70 68 68 68 67 65 65 64 64 64 65 66 64 64 64 64 64 64 65 65 65 65 64 63 71 73 75 76 78 77 77 77
77 74 73 71 72 72 71 72 71 71 70 69 68 68 68 67 65 64 64 64 63 63 64 64 64 64 62 63 63 64 65 65 65 64 64 64 72 74 76 78 79 77 76
76 76 71 72 71 70 71 72 70 70 70 69 68 67 68 67 65 65 64 63 64 63 63 63 64 64 63 63 64 67 67 68 65 65 64 64 66 73 75 77 77 77 75
72 73 72 74 70 70 71 71 71 70 69 69 68 67 68 68 66 64 63 63 63 62 62 62 62 62 61 62 62 60 61 62 65 66 67 65 66 69 73 75 75 76 76
74 73 72 69 67 69 69 68 69 67 68 68 67 66 68 68 67 65 64 63 63 62 62 61 61 61 59 60 60 60 60 60 61 65 64 64 64 67 68 72 74 75 75
72 70 69 68 66 64 64 64 64 65 64 66 67 67 68 68 67 65 65 63 62 61 61 60 60 60 60 59 60 60 60 61 60 60 62 64 63 65 65 64 65 68 73
69 68 68 69 64 66 65 64 63 63 62 62 64 67 67 66 66 65 63 63 62 61 62 61 60 61 60 60 59 59 60 59 59 59 60 61 62 64 64 64 63 64 68
70 68 66 65 65 65 65 63 63 62 62 63 64 66 67 68 68 68 63 62 62 61 61 61 61 59 59 60 58 57 54 57 59 59 59 60 61 62 63 64 64 64 65
67 66 65 64 65 65 65 65 63 63 63 62 61 62 65 69 67 65 64 62 61 62 61 60 60 59 57 59 57 55 52 51 51 56 58 59 59 59 61 63 64 64 64
65 64 64 65 65 66 66 66 68 62 61 61 62 62 63 65 65 65 64 62 62 61 60 59 59 58 56 55 57 58 55 54 51 51 55 57 58 59 59 60 62 63 63
63 63 64 65 65 64 65 67 64 61 61 60 60 61 61 62 64 65 64 62 61 60 60 59 58 58 57 56 56 55 55 54 55 52 51 55 57 57 58 59 60 61 62
62 63 64 65 63 64 64 63 63 62 60 60 59 60 60 60 61 63 63 61 61 60 60 59 59 58 57 57 56 56 55 54 53 53 51 51 53 56 61 62 63 62 63

GFSSE_sfc_temp_048.txt.gz
Temp
71 73 78 79 78 78 78 78 78 78 78 78 78 78 78 77 78 78 78 78 78 78 78 78 78 77 77 77 77 77 77 77 77 78 78 79 76 76 79 79 79 81 78
73 74 78 78 78 79 79 78 78 78 77 77 78 78 77 77 77 77 78 77 78 78 78 78 77 77 77 77 77 77 77 76 76 77 77 76 76 73 77 80 80 79 78
73 74 76 78 78 78 78 78 78 77 77 77 77 77 77 77 78 77 77 77 78 78 78 78 77 77 77 77 77 76 76 76 76 76 77 72 73 78 77 79 81 79 79
73 74 74 78 78 78 78 78 77 77 77 77 77 77 77 77 77 77 77 77 78 78 78 78 77 77 77 77 77 77 76 76 76 76 72 72 72 76 78 79 80 80 79
72 74 74 78 77 78 78 77 77 77 77 77 77 77 77 77 77 77 77 77 78 78 78 78 77 77 77 77 77 77 76 76 76 76 72 71 70 74 77 78 79 79 78
72 73 76 77 77 78 78 77 77 77 77 77 78 77 77 77 77 76 77 77 77 78 78 77 77 77 77 77 77 77 77 76 76 73 71 71 72 73 77 78 79 79 77
71 72 74 77 77 78 78 77 77 77 77 77 77 77 77 77 77 76 77 77 77 77 77 77 77 77 77 76 76 76 76 76 76 73 71 70 71 73 77 78 79 78 78
73 72 73 77 77 77 77 77 77 76 76 77 77 77 77 77 76 76 77 77 77 77 77 77 77 77 76 75 75 75 76 76 76 72 72 71 71 75 77 78 78 77 78
74 72 71 74 76 78 77 77 76 76 76 76 76 76 76 76 76 76 76 76 76 76 76 77 76 76 75 75 75 75 75 76 74 72 72 72 72 75 77 78 77 78 78
71 71 70 70 74 74 75 77 76 76 76 76 76 76 76 76 76 76 75 76 76 76 76 76 76 76 75 74 74 74 74 75 73 71 71 71 73 75 77 77 77 77 77
73 70 69 70 71 72 73 74 76 77 76 76 76 76 75 72 73 74 74 75 76 76 76 76 76 75 75 74 74 74 74 71 70 70 70 71 73 75 76 77 77 77 77
72 71 70 70 71 72 74 71 73 73 74 73 73 72 71 69 69 71 73 76 76 76 76 76 75 75 75 71 70 73 70 69 69 69 70 72 73 75 76 77 77 77 77
79 74 71 71 71 70 73 71 71 71 71 71 70 69 69 68 69 71 68 71 70 74 72 74 73 72 71 69 68 67 68 68 68 69 70 72 73 75 76 77 77 77 77
73 76 76 73 71 70 72 71 70 71 70 69 69 68 68 68 67 67 67 67 67 68 69 69 69 69 69 68 68 67 67 67 68 68 69 72 73 74 76 77 77 78 77
74 78 73 70 71 72 70 71 69 70 70 70 68 68 69 68 66 65 66 66 65 66 67 68 67 68 67 67 67 67 67 67 68 68 68 70 72 74 75 77 76 77 77
72 72 72 70 71 71 69 70 70 70 69 68 68 68 69 67 65 65 65 64 64 65 66 67 67 67 67 67 67 67 67 67 68 68 68 67 72 73 75 76 77 77 78
74 73 70 69 68 68 69 70 70 69 69 68 68 68 68 67 65 65 64 63 64 64 65 65 65 65 65 65 65 67 67 68 68 68 68 68 70 72 75 76 77 77 77
71 70 72 72 68 68 70 70 70 68 68 68 67 68 68 67 66 65 64 64 65 64 64 64 64 64 64 64 64 64 64 65 67 68 69 68 70 70 72 75 76 76 76
71 71 70 66 67 68 68 67 66 65 66 66 66 67 68 68 67 66 65 64 65 64 63 64 63 64 62 62 63 63 63 63 65 68 67 67 67 70 71 72 74 74 74
70 67 66 65 64 64 63 63 64 65 65 66 66 67 67 68 67 65 65 65 65 63 63 63 63 62 63 62 62 62 62 63 63 64 66 68 68 68 69 69 70 73 74
67 65 64 63 62 63 63 62 62 64 64 64 65 67 67 67 67 66 65 65 64 63 64 63 62 62 60 61 60 60 61 62 63 63 65 65 67 68 68 67 67 68 72
66 65 64 63 62 63 64 62 63 62 63 64 65 67 68 67 67 68 67 64 64 63 63 62 62 61 62 62 59 59 56 59 60 63 63 63 65 65 67 66 67 68 69
65 65 65 63 63 64 64 63 61 62 63 62 63 64 66 67 67 67 66 64 63 63 62 62 62 62 59 61 61 58 54 55 57 58 60 62 64 63 65 67 67 68 68
67 64 64 63 64 65 64 64 65 62 62 62 62 64 65 67 66 66 65 64 63 62 62 62 61 61 60 58 59 60 59 59 56 56 59 60 62 63 64 65 66 67 68
64 62 63 64 64 64 64 65 64 62 61 61 62 63 63 64 65 66 65 65 63 62 62 62 61 60 60 58 59 58 58 58 58 57 55 58 60 61 62 64 65 65 67
61 62 63 63 62 63 64 64 63 62 61 61 61 61 61 62 63 65 65 64 63 62 62 61 61 60 59 60 59 59 59 58 57 57 55 56 58 59 62 64 65 65 66